Dallas Love, TX

12:35 PM CDT on October 19, 2017 (GMT -0500)
Dallas Love

Weather History for KDAL - November, 2011

Change the Weather History Date:

Thursday, November 24, 2011

  Actual Average Record
Temperature  
Mean Temperature 50 °F -  
Max Temperature 57 °F 62 °F 82 °F (2010)
Min Temperature 44 °F 43 °F 32 °F (2003)
Degree Days  
Heating Degree Days 14    
Moisture  
Dew Point 47 °F    
Average Humidity 88    
Maximum Humidity 100    
Minimum Humidity 77    
Precipitation  
Precipitation 0.00 in - - ()
Sea Level Pressure  
Sea Level Pressure 30.26 in    
Wind  
Wind Speed 7 mph (SE)    
Max Wind Speed 20 mph    
Max Gust Speed -    
Visibility 4 miles    
Events Fog    
Averages and records for this station are not official NWS values.
T = Trace of Precipitation, MM = Missing Value Source: NWS Daily Summary

Daily Weather History Graph

Daily Weather History Graph

Search for Another Location

Airport or City:

Trip Planner

Search our weather history database for the weather conditions in past years. The results will help you decide how hot, cold, wet, or windy it might be!

Date:

Astronomy

Nov. 24, 2011 Rise Set
Actual Time 7:05 AM CST 5:22 PM CST
Civil Twilight 6:39 AM CST 5:48 PM CST
Nautical Twilight 6:08 AM CST 6:19 PM CST
Astronomical Twilight 5:39 AM CST 6:48 PM CST
Moon 6:23 AM CST (11/24) 4:55 PM CST (11/24)
Length of Visible Light 11h 09m
Length of Day
10h 16m
Waning Crescent, 0% of the Moon is Illuminated
Nov 24
Waning Crescent
Nov 25
New
Dec 2
First Quarter
Dec 10
Full
Dec 17
Last Quarter

Hourly Weather History & Observations

Time (CST) Temp. Windchill Dew Point Humidity Pressure Visibility Wind Dir Wind Speed Gust Speed Precip Events Conditions
12:53 AM 48.9 °F - 43.0 °F 80% 30.25 in 10.0 mi Calm Calm - N/A   Clear
1:53 AM 48.9 °F - 44.1 °F 83% 30.25 in 10.0 mi ESE 4.6 mph - N/A   Clear
2:53 AM 48.0 °F - 43.0 °F 83% 30.27 in 10.0 mi SSE 3.5 mph - N/A   Clear
3:53 AM 48.0 °F - 43.0 °F 83% 30.25 in 10.0 mi ESE 3.5 mph - N/A   Clear
4:53 AM 48.0 °F - 44.1 °F 86% 30.25 in 10.0 mi ESE 9.2 mph - N/A   Clear
5:53 AM 46.4 °F 42.9 °F 44.6 °F 93% 30.26 in 6.0 mi SE 6.9 mph - N/A   Clear
6:53 AM 46.0 °F 43.9 °F 43.0 °F 89% 30.28 in 3.0 mi SE 4.6 mph - N/A   Scattered Clouds
7:01 AM 44.6 °F 42.2 °F 42.8 °F 93% 30.29 in 2.5 mi SE 4.6 mph - N/A   Scattered Clouds
7:20 AM 44.6 °F 41.4 °F 44.6 °F 100% 30.29 in 2.0 mi ESE 5.8 mph - N/A   Mostly Cloudy
7:28 AM 46.4 °F 43.5 °F 44.6 °F 93% 30.30 in 1.5 mi ESE 5.8 mph - N/A   Mostly Cloudy
7:36 AM 46.4 °F 43.5 °F 44.6 °F 93% 30.30 in 1.0 mi SE 5.8 mph - N/A   Mist
7:41 AM 46.4 °F 42.9 °F 44.6 °F 93% 30.30 in 0.5 mi SE 6.9 mph - N/A Fog Fog
7:53 AM 46.0 °F 43.1 °F 46.0 °F 100% 30.31 in 0.2 mi SE 5.8 mph - N/A Fog Fog
8:07 AM 46.4 °F 43.5 °F 46.4 °F 100% 30.31 in 0.1 mi SE 5.8 mph - N/A Fog Fog
8:53 AM 46.9 °F - 46.9 °F 100% 30.32 in 0.1 mi SE 6.9 mph - N/A Fog Fog
9:21 AM 48.2 °F - 46.4 °F 93% 30.33 in 0.2 mi SSE 4.6 mph - N/A Fog Fog
9:53 AM 48.0 °F - 46.9 °F 96% 30.33 in 0.8 mi SSE 6.9 mph - N/A   Mist
10:32 AM 48.2 °F - 48.2 °F 100% 30.33 in 2.5 mi SE 10.4 mph - N/A   Overcast
10:53 AM 50.0 °F - 48.0 °F 93% 30.32 in 2.5 mi SE 9.2 mph - N/A   Overcast
11:13 AM 51.8 °F - 48.2 °F 88% 30.32 in 2.5 mi SE 8.1 mph - N/A   Mostly Cloudy
11:30 AM 51.8 °F - 48.2 °F 88% 30.31 in 3.0 mi SE 10.4 mph - N/A   Overcast
11:53 AM 53.1 °F - 48.0 °F 83% 30.30 in 3.0 mi SE 12.7 mph - N/A   Overcast
12:53 PM 54.0 °F - 48.0 °F 80% 30.25 in 3.0 mi North - - N/A   Mist
1:13 PM 53.6 °F - 48.2 °F 82% 30.24 in 4.0 mi SE 9.2 mph - N/A   Overcast
1:53 PM 54.0 °F - 48.9 °F 83% 30.23 in 4.0 mi SE 11.5 mph - N/A   Overcast
2:11 PM 55.4 °F - 48.2 °F 77% 30.23 in 5.0 mi SE 10.4 mph - N/A   Haze
2:53 PM 55.9 °F - 48.9 °F 77% 30.22 in 6.0 mi SE 12.7 mph - N/A   Haze
3:07 PM 55.4 °F - 50.0 °F 82% 30.21 in 5.0 mi SE 12.7 mph - N/A   Haze
3:34 PM 57.2 °F - 50.0 °F 77% 30.21 in 5.0 mi SE 15.0 mph - N/A   Haze
3:53 PM 55.9 °F - 50.0 °F 80% 30.20 in 6.0 mi SSE 11.5 mph - N/A   Haze
4:53 PM 54.0 °F - 50.0 °F 86% 30.20 in 5.0 mi SE 11.5 mph - N/A   Mostly Cloudy
5:23 PM 53.6 °F - 50.0 °F 88% 30.19 in 4.0 mi SE 12.7 mph - N/A   Overcast
5:53 PM 53.1 °F - 48.9 °F 86% 30.19 in 4.0 mi SSE 16.1 mph - N/A   Overcast
6:53 PM 52.0 °F - 48.9 °F 89% 30.20 in 4.0 mi SE 13.8 mph - N/A   Overcast
7:53 PM 52.0 °F - 48.9 °F 89% 30.20 in 4.0 mi SE 15.0 mph - N/A   Overcast
8:53 PM 52.0 °F - 48.9 °F 89% 30.20 in 4.0 mi SE 16.1 mph - N/A   Overcast
9:53 PM 52.0 °F - 48.9 °F 89% 30.18 in 6.0 mi SE 19.6 mph - N/A   Overcast
10:53 PM 52.0 °F - 48.9 °F 89% 30.17 in 5.0 mi SE 12.7 mph - N/A   Overcast
11:53 PM 52.0 °F - 48.9 °F 89% 30.16 in 5.0 mi SSE 10.4 mph - N/A   Overcast